Regional Weather Roundup
Issued by NWS Goodland, KS

Home | Current Version | Previous Version | Graphics & Text | Print | Product List | Glossary On
Versions: 1 2 3 4 5 6 7 8 9 10 11 12 13 14 15 16 17 18 19 20 21 22 23 24 25 26 27 28 29 30 31 32 33 34 35 36 37 38 39 40 41 42 43 44 45 46 47 48 49 50
000
ASUS43 KGLD 062059
RWRGLD

GOODLAND FORECAST AREA HOURLY WEATHER ROUNDUP
NATIONAL WEATHER SERVICE GOODLAND KS
200 PM MST FRI MAR 06 2015

...OFFICIAL OBSERVATIONS...

CITY           SKY/WX    TMP DP  RH WIND       PRES   REMARKS
GOODLAND KS    SUNNY     60  14  16 W15G24    30.22F
HILL CITY KS   SUNNY     65  15  14 W15G26    30.20F
IMPERIAL NEB     N/A     60  13  15 W14       30.18F
MCCOOK NEB     SUNNY     65  15  14 W16       30.17F
AKRON CO       SUNNY     54  13  19 W9        30.23F
BURLINGTON CO  SUNNY     56  15  20 W15       30.24F
LIMON CO       SUNNY     43  25  49 N5        30.26F
$$

...UNOFFICIAL OBSERVATIONS...

CITY           SKY/WX    TMP DP  RH WIND       PRES   REMARKS
COLBY KS       SUNNY     63  23  22 W23       30.21F
GOVE KS          N/A     62  32  32 MISG        N/A
LENORA KS        N/A     60  32  34 S20         N/A
NORTON KS      SUNNY     63   9  12 W17       30.18F
SHARON SPRINGS   N/A     59  27  29 CALM        N/A
YUMA CO          N/A     57  18  21 W16         N/A
$$


USA.gov is the U.S. government's official web portal to all federal, state and local government web resources and services.